Location: Newark
(52.1031°N, 9.3600°E)
Time: 14:53:56
(UTC+00:00)

nSIGHT-1 - Pass Details

Date: 22 December 2019
Orbit: 316 x 318 km, 51.6° (Epoch: 17 January)

Event Time Altitude Azimuth Distance (km) Brightness Sun altitude
Exits shadow 06:30:33 - 264° (W) 1,308 ? -8.4°
Reaches altitude 10° 06:30:49 10° 261° (W) 1,222 ? -8.3°
Maximum altitude 06:32:52 19° 212° (SSW) 829 ? -8.0°
Drops below altitude 10° 06:34:55 10° 162° (SSE) 1,215 ? -7.8°
Sets 06:37:10 0° 144° (SE) 2,042 ? -7.5°
